When you browse on this site, cookies collect data to enhance your experience and personalize the content and advertising you see.
Visit our Privacy Policy to learn more. By continuing to use the site, you agree to this use of cookies and data.
  • In Hungary
  • List of Countries
  • For 7 days
  • Water Temperature
  • Satellite Maps
  • Weather Map
  • News
  • Weather Widgets
  • user-avatar
    Login

    Hourly Weather El-Dzhem

    Today, 24 April, Wednesday

    Time Temperature Precipitation Wind Pressure Humidity
    00:00 +23°C° 0 mm 2 mps 748 mmHg 35%
    01:00 +21°C° 0 mm 2 mps 748 mmHg 36%
    02:00 +21°C° 0 mm 2 mps 748 mmHg 38%
    03:00 +20°C° 0 mm 2 mps 748 mmHg 41%
    04:00 +20°C° 0 mm 2 mps 748 mmHg 43%
    05:00 +20°C° 0 mm 2 mps 748 mmHg 43%
    06:00 +22°C° 0 mm 1 mps 748 mmHg 42%
    07:00 +23°C° 0 mm 1 mps 748 mmHg 41%
    08:00 +24°C° 0 mm 2 mps 749 mmHg 38%
    09:00 +26°C° 0 mm 3 mps 749 mmHg 35%
    10:00 +27°C° 0 mm 5 mps 749 mmHg 31%
    11:00 +27°C° 0 mm 5 mps 749 mmHg 32%
    12:00 +27°C° 0 mm 6 mps 749 mmHg 33%
    13:00 +28°C° 0 mm 6 mps 749 mmHg 34%
    14:00 +27°C° 0 mm 6 mps 749 mmHg 37%
    15:00 +26°C° 0 mm 6 mps 749 mmHg 39%
    16:00 +26°C° 0 mm 6 mps 749 mmHg 41%
    17:00 +23°C° 0 mm 6 mps 750 mmHg 49%
    18:00 +22°C° 0 mm 6 mps 750 mmHg 56%
    19:00 +20°C° 0 mm 6 mps 750 mmHg 63%
    20:00 +20°C° 0 mm 6 mps 751 mmHg 65%
    21:00 +19°C° 0 mm 6 mps 751 mmHg 67%
    22:00 +19°C° 0 mm 6 mps 752 mmHg 69%
    23:00 +19°C° 0 mm 6 mps 752 mmHg 70%

    Tomorrow, 25 April, Thursday

    Time Temperature Precipitation Wind Pressure Humidity
    00:00 +17°C° 0 mm 5 mps 752 mmHg 72%
    01:00 +17°C° 0 mm 5 mps 752 mmHg 74%
    02:00 +17°C° 0 mm 5 mps 752 mmHg 75%
    03:00 +17°C° 0 mm 4 mps 751 mmHg 77%
    04:00 +17°C° 0 mm 4 mps 751 mmHg 79%
    05:00 +17°C° 0 mm 4 mps 751 mmHg 77%
    06:00 +18°C° 0 mm 4 mps 752 mmHg 74%
    07:00 +18°C° 0 mm 4 mps 752 mmHg 72%
    08:00 +19°C° 0 mm 4 mps 752 mmHg 65%
    09:00 +21°C° 0 mm 4 mps 753 mmHg 59%
    10:00 +22°C° 0 mm 4 mps 753 mmHg 52%
    11:00 +23°C° 0 mm 4 mps 753 mmHg 50%
    12:00 +25°C° 0 mm 4 mps 753 mmHg 48%
    13:00 +26°C° 0 mm 4 mps 753 mmHg 47%
    14:00 +26°C° 0 mm 4 mps 752 mmHg 48%
    15:00 +26°C° 0 mm 4 mps 752 mmHg 49%
    16:00 +26°C° 0 mm 5 mps 752 mmHg 51%
    17:00 +25°C° 0 mm 5 mps 752 mmHg 56%
    18:00 +22°C° 0 mm 5 mps 752 mmHg 61%
    19:00 +20°C° 0 mm 5 mps 752 mmHg 66%
    20:00 +20°C° 0 mm 4 mps 753 mmHg 67%
    21:00 +20°C° 0 mm 3 mps 753 mmHg 69%
    22:00 +19°C° 0 mm 2 mps 754 mmHg 70%
    23:00 +19°C° 0 mm 2 mps 754 mmHg 72%

    Day after tomorrow, 26 April, Friday

    Time Temperature Precipitation Wind Pressure Humidity
    00:00 +18°C° 0 mm 2 mps 754 mmHg 73%
    01:00 +18°C° 0 mm 2 mps 754 mmHg 74%
    02:00 +18°C° 0 mm 2 mps 753 mmHg 76%
    03:00 +17°C° 0 mm 2 mps 753 mmHg 77%
    04:00 +18°C° 0 mm 1 mps 753 mmHg 79%
    05:00 +18°C° 0 mm 1 mps 753 mmHg 77%
    06:00 +19°C° 0 mm 1 mps 753 mmHg 75%
    07:00 +19°C° 0 mm 1 mps 754 mmHg 73%
    08:00 +20°C° 0 mm 2 mps 754 mmHg 65%
    09:00 +21°C° 0 mm 2 mps 755 mmHg 58%
    10:00 +24°C° 0 mm 3 mps 755 mmHg 51%
    11:00 +25°C° 0 mm 4 mps 755 mmHg 48%
    12:00 +26°C° 0 mm 6 mps 755 mmHg 45%
    13:00 +27°C° 0 mm 8 mps 756 mmHg 42%
    14:00 +26°C° 0 mm 9 mps 755 mmHg 44%
    15:00 +26°C° 0 mm 9 mps 755 mmHg 46%
    16:00 +24°C° 0 mm 10 mps 755 mmHg 48%
    17:00 +23°C° 0 mm 10 mps 755 mmHg 49%
    18:00 +23°C° 0 mm 10 mps 755 mmHg 50%
    19:00 +22°C° 0 mm 9 mps 755 mmHg 51%
    20:00 +21°C° 0 mm 9 mps 756 mmHg 52%
    21:00 +19°C° 0 mm 9 mps 756 mmHg 53%
    22:00 +18°C° 0 mm 9 mps 757 mmHg 54%
    23:00 +18°C° 0 mm 9 mps 757 mmHg 52%

    27 April, Saturday

    Time Temperature Precipitation Wind Pressure Humidity
    00:00 +17°C° 0 mm 8 mps 756 mmHg 49%
    01:00 +17°C° 0 mm 8 mps 756 mmHg 46%
    02:00 +16°C° 0 mm 8 mps 756 mmHg 48%
    03:00 +16°C° 0 mm 8 mps 756 mmHg 50%
    04:00 +16°C° 0 mm 8 mps 756 mmHg 52%
    05:00 +16°C° 0 mm 9 mps 756 mmHg 52%
    06:00 +16°C° 0 mm 9 mps 756 mmHg 51%
    07:00 +16°C° 0 mm 9 mps 757 mmHg 51%
    08:00 +17°C° 0 mm 9 mps 757 mmHg 47%
    09:00 +18°C° 0 mm 9 mps 757 mmHg 43%
    10:00 +19°C° 0 mm 9 mps 757 mmHg 38%
    11:00 +21°C° 0 mm 9 mps 757 mmHg 37%
    12:00 +22°C° 0 mm 9 mps 757 mmHg 36%
    13:00 +23°C° 0 mm 9 mps 757 mmHg 35%
    14:00 +23°C° 0 mm 9 mps 756 mmHg 35%
    15:00 +23°C° 0 mm 9 mps 756 mmHg 35%
    16:00 +23°C° 0 mm 9 mps 756 mmHg 35%
    17:00 +22°C° 0 mm 8 mps 756 mmHg 37%
    18:00 +21°C° 0 mm 8 mps 756 mmHg 38%
    19:00 +20°C° 0 mm 8 mps 756 mmHg 40%
    20:00 +18°C° 0 mm 7 mps 757 mmHg 42%
    21:00 +17°C° 0 mm 7 mps 757 mmHg 44%
    22:00 +17°C° 0 mm 6 mps 758 mmHg 46%
    23:00 +16°C° 0 mm 6 mps 757 mmHg 49%

    28 April, Sunday

    Time Temperature Precipitation Wind Pressure Humidity
    00:00 +16°C° 0 mm 5 mps 757 mmHg 52%
    01:00 +15°C° 0 mm 5 mps 757 mmHg 54%
    02:00 +14°C° 0 mm 4 mps 757 mmHg 56%
    03:00 +14°C° 0 mm 3 mps 756 mmHg 58%
    04:00 +14°C° 0 mm 3 mps 756 mmHg 60%
    05:00 +14°C° 0 mm 3 mps 756 mmHg 57%
    06:00 +14°C° 0 mm 4 mps 756 mmHg 55%
    07:00 +15°C° 0 mm 4 mps 756 mmHg 53%
    08:00 +16°C° 0 mm 5 mps 756 mmHg 49%
    09:00 +17°C° 0 mm 5 mps 756 mmHg 46%
    10:00 +20°C° 0 mm 5 mps 756 mmHg 42%
    11:00 +20°C° 0 mm 4 mps 756 mmHg 39%
    12:00 +21°C° 0 mm 4 mps 755 mmHg 36%
    13:00 +22°C° 0 mm 3 mps 755 mmHg 33%
    14:00 +24°C° 0 mm 3 mps 755 mmHg 33%
    15:00 +24°C° 0 mm 3 mps 754 mmHg 33%
    16:00 +24°C° 0 mm 3 mps 754 mmHg 33%
    17:00 +21°C° 0 mm 4 mps 754 mmHg 42%
    18:00 +20°C° 0 mm 5 mps 754 mmHg 51%
    19:00 +17°C° 0 mm 6 mps 754 mmHg 60%
    20:00 +17°C° 0 mm 5 mps 754 mmHg 62%
    21:00 +17°C° 0 mm 4 mps 755 mmHg 64%
    22:00 +17°C° 0 mm 3 mps 755 mmHg 67%
    23:00 +17°C° 0 mm 2 mps 755 mmHg 68%

    29 April, Monday

    Time Temperature Precipitation Wind Pressure Humidity
    00:00 +16°C° 0 mm 2 mps 755 mmHg 70%
    01:00 +16°C° 0 mm 1 mps 755 mmHg 72%
    02:00 +16°C° 0 mm 1 mps 754 mmHg 74%
    03:00 +15°C° 0 mm 1 mps 754 mmHg 75%
    04:00 +15°C° 0 mm 1 mps 754 mmHg 77%
    05:00 +15°C° 0 mm 1 mps 754 mmHg 75%
    06:00 +16°C° 0 mm 1 mps 754 mmHg 74%
    07:00 +16°C° 0 mm 1 mps 754 mmHg 72%
    08:00 +17°C° 0 mm 2 mps 754 mmHg 65%
    09:00 +18°C° 0 mm 2 mps 754 mmHg 58%
    10:00 +20°C° 0 mm 3 mps 754 mmHg 51%
    11:00 +21°C° 0 mm 3 mps 753 mmHg 47%
    12:00 +22°C° 0 mm 4 mps 753 mmHg 44%
    13:00 +23°C° 0 mm 4 mps 753 mmHg 40%
    14:00 +23°C° 0 mm 5 mps 752 mmHg 41%
    15:00 +23°C° 0 mm 6 mps 752 mmHg 42%
    16:00 +23°C° 0 mm 7 mps 751 mmHg 43%
    17:00 +21°C° 0 mm 7 mps 751 mmHg 49%
    18:00 +20°C° 0 mm 7 mps 751 mmHg 55%
    19:00 +17°C° 0 mm 7 mps 751 mmHg 61%
    20:00 +17°C° 0 mm 6 mps 752 mmHg 64%
    21:00 +17°C° 0 mm 5 mps 752 mmHg 67%
    22:00 +17°C° 0 mm 4 mps 752 mmHg 70%
    23:00 +17°C° 0 mm 4 mps 752 mmHg 72%
    Show more